This demonstration page uses our WeatherBlox Daily Observations layout. Learn more.

Left ArrowRight Arrow

53.62937, 11.41316

Hourly Observations for September 8, 2021

Temp ( °F °C ) Dew Point ( °F °C ) Humidity (%) Winds ( mph kmh ) Pressure ( in mb ) Visibility ( mi km ) Precip ( " mm )
7:50 am 07:50 Mostly Sunny 54 12 54 12 100 100 VRB 1 2 30.18 1022 7 11 N/A
8:20 am 08:20 Mostly Sunny 55 13 55 13 100 100 VRB 1 2 30.18 1022 7 11 N/A
8:50 am 08:50 Mostly Sunny 59 15 55 13 88 88 SE 3 6 30.18 1022 7 11 N/A
9:20 am 09:20 Mostly Sunny 61 16 57 14 88 88 VRB 2 4 30.18 1022 7 11 N/A
9:50 am 09:50 Mostly Sunny 63 17 57 14 83 83 SE 3 6 30.15 1021 7 11 N/A
10:20 am 10:20 Mostly Sunny 63 17 57 14 83 83 SE 5 7 30.15 1021 7 11 N/A
10:50 am 10:50 Mostly Sunny 63 17 57 14 83 83 SE 3 6 30.15 1021 7 11 N/A
11:20 am 11:20 Mostly Sunny 64 18 55 13 73 73 SE 3 6 30.15 1021 7 11 N/A
11:50 am 11:50 Mostly Sunny 68 20 57 14 69 69 SE 3 6 30.15 1021 7 11 N/A
12:20 pm 12:20 Mostly Sunny 70 21 57 14 64 64 SE 3 6 30.15 1021 7 11 N/A
12:50 pm 12:50 Mostly Sunny 70 21 57 14 64 64 SE 5 7 30.12 1020 7 11 N/A
1:20 pm 13:20 Mostly Sunny 72 22 57 14 61 61 SE 5 7 30.12 1020 7 11 N/A
1:50 pm 13:50 Mostly Sunny 72 22 57 14 61 61 VRB 5 7 30.12 1020 7 11 N/A
2:20 pm 14:20 Mostly Sunny 73 23 57 14 57 57 SSE 5 7 30.12 1020 7 11 N/A
2:50 pm 14:50 Mostly Sunny 73 23 59 15 61 61 E 6 9 30.09 1019 7 11 N/A
3:20 pm 15:20 Mostly Sunny 73 23 57 14 57 57 VRB 3 6 30.09 1019 7 11 N/A
3:50 pm 15:50 Mostly Sunny 75 24 55 13 50 50 VRB 3 6 30.09 1019 7 11 N/A
4:20 pm 16:20 Mostly Sunny 75 24 55 13 50 50 E 3 6 30.06 1018 7 11 N/A
4:50 pm 16:50 Mostly Sunny 75 24 55 13 50 50 ESE 3 6 30.06 1018 7 11 N/A
5:20 pm 17:20 Mostly Sunny 77 25 57 14 51 51 VRB 2 4 30.06 1018 7 11 N/A
5:50 pm 17:50 Mostly Sunny 75 24 55 13 50 50 SE 3 6 30.03 1017 7 11 N/A
6:20 pm 18:20 Mostly Sunny 75 24 57 14 54 54 VRB 2 4 30.03 1017 7 11 N/A
6:50 pm 18:50 Mostly Sunny 72 22 59 15 65 65 ENE 6 9 30.03 1017 7 11 N/A
7:20 pm 19:20 Mostly Sunny 70 21 59 15 69 69 NE 5 7 30.03 1017 7 11 N/A
7:50 pm 19:50 Mostly Sunny 66 19 57 14 73 73 ENE 3 6 30.03 1017 7 11 N/A
8:20 pm 20:20 Mostly Clear 64 18 57 14 78 78 E 3 6 30.03 1017 7 11 N/A
8:50 pm 20:50 Mostly Clear 63 17 57 14 83 83 ENE 5 7 30.03 1017 7 11 N/A
9:20 pm 21:20 Mostly Clear 63 17 57 14 83 83 E 3 6 30.03 1017 7 11 N/A
9:50 pm 21:50 Mostly Clear 61 16 57 14 88 88 E 3 6 30.03 1017 7 11 N/A

Powered by AerisWeather